Location: Rounton
(54.4000°N, 1.3500°W)
Time: 15:02:51
(UTC+00:00)

Transit 2A - Pass Details

Date: 08 December 2021
Orbit: 591 x 967 km, 66.7° (Epoch: 21 January)

Event Time Altitude Azimuth Distance (km) Brightness Sun altitude
Rises 04:59:40 0° 308° (NW) 3,612 - -26.6°
Reaches altitude 10° 05:02:29 10° 317° (NW) 2,693 - -26.2°
Exits shadow 05:05:49 26° 343° (NNW) 1,809 7.7 -25.7°
Maximum altitude 05:08:12 34° 21° (NNE) 1,558 7.7 -25.4°
Drops below altitude 10° 05:13:55 10° 85° (E) 2,692 9.8 -24.5°
Sets 05:16:44 0° 95° (E) 3,610 10.9 -24.1°
